Simultaneous Nadir Overpasses (SNOs) Predictions

Prediction of SNOs between FY3D and METOP-C Satellite Orbit:

Table of predicted SNOs for the next 14.0 days since TLE Epoch: 12/1/2020
Index Date (FY3D) Time (FY3D) Lat,Lon (FY3D) SZA (FY3D ) Date (METOP-C) Time (METOP-C) Lat,Lon (METOP-C) SZA (METOP-C ) Distance(km) Time Diff (sec)
1 12/14/2020 23:22:23 -73.84, 0.73 82.85 12/14/2020 23:23:29 -73.79, 3.70 82.99 92.45 66
2 12/15/2020 00:13:05 73.69, 168.39 97.00 12/15/2020 00:14:13 73.62, 170.63 96.85 70.51 68
3 12/15/2020 01:03:46 -73.54, -23.94 83.17 12/15/2020 01:04:56 -73.52, -22.26 83.24 52.97 70
4 12/15/2020 01:54:28 73.40, 143.71 96.68 12/15/2020 01:55:40 73.35, 144.67 96.60 30.91 72



Historial Predications of SNOs between FY3D and METOP-C
